Location: *
(46.1006°N, 1.8394°E)
Time: 17:07:31
(UTC+00:00)

Cosmos 2227 Rocket - Pass Details

Date: 20 September 2019
Orbit: 837 x 847 km, 71.0° (Epoch: 22 October)

Event Time Altitude Azimuth Distance (km) Brightness Sun altitude
Rises 18:31:52 0° 164° (SSE) 3,380 5.1 -7.2°
Reaches altitude 10° 18:34:48 10° 149° (SSE) 2,452 4.2 -7.7°
Maximum altitude 18:39:00 22° 101° (E) 1,765 3.3 -8.4°
Drops below altitude 10° 18:43:13 10° 52° (NE) 2,470 4.2 -9.1°
Sets 18:46:10 0° 38° (NE) 3,412 5.1 -9.6°
